Main page
METAR-TAF:

METAR-TAF

Airports :

Tahlequah Municipal Airport

Tahlequah, Oklahoma, United States

latitude: 35-55-44N, longitude: 095-00-16W, elevation: 872 ft

Current weather observation

The report was made 32 minutes ago, at 05:15 UTC
Calm wind
Temperature 72°F
Humidity 88%
Pressure 30.10 in. Hg
Visibility: 10 miles
Clear sky

METAR: KTQH 220515Z AUTO 00000KT 10SM CLR 22/20 A3010 RMK AO2

Time: 00:47 (05:47 UTC)


TAF: missing

Weather observations and forecasts of more than 4000 airports (METAR and TAF reports).

The available stations are represented by yellow and red dots on the map.

Hover mouse over dot to see the name of the station.

Then click to see weather observations and forecasts.

To change the map : click on the green buttons with a black cross to zoom in, on the green button with a dash to zoom out, or on the green arrows for adjacent maps.


METAR-TAF: